Location: Oberkirch
(48.5323°N, 8.0787°E)
Time: 00:08:13
(UTC+00:00)

CUTE 1.7 + AOD 2 - Pass Details

Date: 14 March 2026
Orbit: 535 x 545 km, 97.8° (Epoch: 14 April)

Event Time Altitude Azimuth Distance (km) Brightness Sun altitude
Rises 04:19:28 0° 9° (N) 2,719 ? -14.6°
Reaches altitude 10° 04:21:37 10° 6° (N) 1,823 ? -14.3°
Maximum altitude 04:25:29 56° 288° (WNW) 652 ? -13.7°
Drops below altitude 10° 04:29:19 10° 210° (SSW) 1,812 ? -13.0°
Enters shadow 04:29:33 - 209° (SSW) 1,911 ? -13.0°
